Tracking 22836 objects as of 18-Apr-2021
HD Live streaming from Space Station
objects crossing your sky now

STARLINK-1271

Track STARLINK-1271 now!
10-day predictions
STARLINK-1271 is classified as:


NORAD ID: 45217
Int'l Code: 2020-012AR
Perigee: 554.0 km
Apogee: 554.6 km
Inclination: 53.1 °
Period: 95.6 minutes
Semi major axis: 6925 km
RCS: Unknown
Launch date: February 17, 2020
Source: United States (US)
Launch site: AIR FORCE EASTERN TEST RANGE (AFETR)
aabbcc
Your satellite tracking list
Your tracking list is empty




NASA's NSSDC Master Catalog

Two Line Element Set (TLE):
1 45217U 20012AR  21107.93112997  .00000795  00000-0  72253-4 0  9990
2 45217  53.0558 127.6916 0000450 129.7630 230.3399 15.06406898 65812
Source of the keplerian elements: AFSPC